THOR ABLESTAR DEB, 158

Orbit data source: Space-Track

THOR ABLESTAR DEB, 158 is space debris in LEO originally from a launch on Thu, 29 Jun 1961 UTC launched from the Air Force Eastern Test Range (AFETR). Debris objects in space refer to the collection of defunct objects orbiting the Earth. Examples of debris include non-operational satellites, rocket bodies, and fragments generated from explosions, collisions, or faulty payload assembly.

Loading next visibility...
THOR ABLESTAR DEB details
Identifier
158, 1961-015AU
Orbit
LEO
Last TLE update22 hours ago
Origin
Flag of USUSAF SSD (US)
ManufacturerUnknown
MissionSpacecraft
Bus & MotorUnknown
MassUnknown
Launch date (UTC)
1961-06-29 (64 years ago)
Launch vehicleUnknown
Launch site
Air Force Eastern Test Range (AFETR)
Object type
Payload
Rocket body
Debris
Shape & HBRUnknown
Radar Cross SectionMedium (>0.1 m² and <1 m²)

Expand to show TLE details & history

TLE from 22 hours ago
0 THOR ABLESTAR DEB
1 00158U 61015AU  25035.49953941  .00000230  00000-0  72756-3 0  9991
2 00158  67.0743 105.0078 0608651 186.6733 172.5901 12.65980207942341
Epoch: 2025-02-04T11:59Z
Definitive object data (Epoch: 2025-02-04T11:59:20.205Z)
Latitude0.00001°
Longitude150.26967°
Altitude1,870.183 km
Speed6.74 km/s
True Right ascension07h 00m 01s
True Declination0° 00' 00"
Sunlit
Object was in full shadow at TLE epoch
Visualization TLE readout
Latitude-8.6269°
Longitude-27.84861°
Altitude929.115 km
Speed7.608 km/s
Apparent Right ascension20h 59m 01s
Apparent Declination-27° 26' 50"
Sunlit
Object is in daylight
Visualization observer readout
Local Sidereal Time11:53:21
Azimuth84.495° E
Elevation-52.075°
Doppler factor1
Orbital elements
Apogee altitude1,870.035 km
Perigee altitude923.589 km
Semi-major axis7,774.949 km
Eccentricity0.0608651
Inclination67.0743°
RAAN105.0078°
Arg. of periapsis186.6733°
True anomaly173.42631°
Mean anomaly172.5901°
Eccentric anomaly173.01424°
Mean motion3.1659 °/min
BSTAR0.00072756
Orbital period113.71 mins
Loading maneuver chart data...

THOR ABLESTAR DEB Visibility forecast

Observer location: undefined°, undefined

Span
Click to sort rows by Start time (UTC) header in descending order
Start Az.
Max El. time (UTC)
Max El. Az.
Max El.
End time (UTC)
End Az.
9 mins2025-02-05 13:13:37.175Z356.755° N2025-02-05 13:17:37.175Z30.403° NE17.997°2025-02-05 13:22:37.175Z77.14° E
12 mins2025-02-05 15:10:37.175Z333.766° NNW2025-02-05 15:16:37.175Z66.789° ENE44.618°2025-02-05 15:22:37.175Z148.187° SSE
4 mins2025-02-05 17:10:37.175Z278.079° WNW2025-02-05 17:12:37.175Z258.364° W13.879°2025-02-05 17:14:37.175Z238.613° WSW
12 mins2025-02-06 03:55:37.175Z135.501° SSE2025-02-06 04:01:37.175Z96.896° ESE20.185°2025-02-06 04:07:37.175Z58.656° ENE
19 mins2025-02-06 05:47:37.175Z203.015° SW2025-02-06 05:57:37.175Z99.524° ESE44.914°2025-02-06 06:06:37.175Z29.846° NE
15 mins2025-02-06 07:48:37.175Z264.259° W2025-02-06 07:55:37.175Z313.662° NW26.697°2025-02-06 08:03:37.175Z14.207° NNE
|